N2NET Weather Reports


time (UTC)temp
C
wind
direction
speed
KPH
gust
KPH
rain 1hr
cm
rain 24hr
cm
rain mn
cm
humidity
%
barometer
mb
20260502163059 11 301 3.2 22.5 0.00 0.28 0.20 44 1011.0
20260502161558 10 291 8.0 19.3 0.00 0.28 0.20 45 1011.0
20260502151611 8 328 9.7 17.7 0.00 0.28 0.20 52 1011.6
20260502123051 6 307 4.8 16.1 0.00 0.28 0.20 24 1011.9
20260502121551 6 283 6.4 16.1 0.03 0.28 0.20 11 1011.8
20260502114602 6 312 6.4 12.9 0.03 0.28 0.20 100 1011.6
20260502113113 5 246 3.2 6.4 0.03 0.28 0.20 100 1011.4
20260502111602 5 242 0.0 4.8 0.00 0.25 0.18 100 1011.2
20260502110054 5 0 0.0 4.8 0.00 0.25 0.18 100 1011.3
20260502104601 5 0 0.0 1.6 0.00 0.25 0.18 100 1010.9
20260502103056 5 0 0.0 4.8 0.00 0.25 0.18 100 1010.8
20260502101609 5 0 0.0 1.6 0.00 0.25 0.18 100 1010.5
20260502090107 5 0 0.0 0.0 0.00 0.25 0.18 100 1010.2
20260502070106 6 191 0.0 1.6 0.13 0.23 0.15 100 1010.7
20260502064554 6 0 0.0 0.0 0.15 0.23 0.15 100 1010.6
20260502063052 6 0 0.0 1.6 0.08 0.15 0.08 100 1010.9
20260502061551 6 0 0.0 0.0 0.05 0.13 0.05 100 1010.7
20260502060058 6 0 0.0 0.0 0.03 0.10 0.03 100 1010.7
20260502054605 6 0 0.0 0.0 0.00 0.08 0.00 100 1010.8
20260502053052 6 0 0.0 0.0 0.00 0.08 0.00 100 1010.7
20260502051554 6 0 0.0 0.0 0.00 0.08 0.00 100 1010.8
20260502050051 6 0 0.0 0.0 0.00 0.08 0.00 100 1010.9
20260502044556 6 0 0.0 0.0 0.00 0.08 0.00 100 1011.0
20260502043113 7 0 0.0 0.0 0.03 0.08 0.00 100 1011.0
20260502041624 7 0 0.0 1.6 0.03 0.08 0.00 100 1011.2
20260502040100 7 218 0.0 1.6 0.08 0.08 0.00 100 1011.2
20260502034557 7 0 0.0 0.0 0.08 0.08 0.08 100 1011.1
20260502033057 7 0 0.0 0.0 0.05 0.05 0.05 7 1011.2
20260502031635 7 0 0.0 1.6 0.05 0.05 0.05 48 1011.3
20260502030117 7 0 0.0 3.2 0.00 0.00 0.00 72 1011.4
20260502024559 7 0 0.0 3.2 0.00 0.00 0.00 74 1011.2
20260502023127 7 0 0.0 0.0 0.00 0.00 0.00 75 1011.1
20260502021549 7 0 0.0 0.0 0.00 0.00 0.00 75 1011.0
20260502020051 7 0 0.0 0.0 0.00 0.00 0.00 74 1011.2
20260502014605 8 0 0.0 0.0 0.00 0.00 0.00 74 1011.3
20260502013055 8 0 0.0 0.0 0.00 0.00 0.00 73 1011.2
20260502011606 8 0 0.0 0.0 0.00 0.00 0.00 71 1011.1
20260502010051 8 0 0.0 0.0 0.00 0.00 0.00 71 1011.2
20260502004551 8 0 0.0 1.6 0.00 0.00 0.00 69 1011.1
20260502003049 9 0 0.0 1.6 0.00 0.00 0.00 64 1010.9
20260502001558 10 325 1.6 4.8 0.00 0.00 0.00 61 1010.8
20260502000107 10 323 3.2 6.4 0.00 0.00 0.00 60 1010.7
20260501234549 10 0 0.0 6.4 0.00 0.00 0.00 59 1010.6
20260501233112 11 294 6.4 16.1 0.00 0.00 0.00 56 1010.6
20260501231620 11 331 11.3 19.3 0.00 0.00 0.00 55 1010.4
20260501230115 12 314 4.8 11.3 0.00 0.00 0.00 50 1010.2
20260501224556 12 301 1.6 11.3 0.00 0.00 0.00 50 1009.9
20260501223055 12 300 4.8 16.1 0.00 0.00 0.00 48 1009.7
20260501221602 13 305 4.8 11.3 0.00 0.00 0.00 45 1009.6
20260501220101 13 311 3.2 17.7 0.00 0.00 0.00 44 1009.6
20260501214553 13 0 3.2 12.9 0.00 0.00 0.00 41 1009.5
20260501213053 13 329 6.4 12.9 0.00 0.00 0.00 40 1009.3
20260501211553 13 323 6.4 12.9 0.00 0.00 0.00 41 1009.2
20260501210055 13 349 11.3 19.3 0.00 0.00 0.00 38 1009.1
20260501204551 13 291 4.8 9.7 0.00 0.00 0.00 38 1009.0
20260501203050 13 309 8.0 14.5 0.00 0.00 0.00 37 1009.0
20260501201550 13 295 3.2 14.5 0.00 0.00 0.00 37 1009.0
20260501200056 13 320 4.8 19.3 0.00 0.00 0.00 37 1009.1
20260501194551 14 302 14.5 24.1 0.00 0.00 0.00 36 1009.1
20260501193050 14 360 4.8 16.1 0.00 0.00 0.00 38 1008.9
20260501191549 14 291 0.0 6.4 0.00 0.00 0.00 38 1009.2
20260501190050 14 5 4.8 25.7 0.00 0.00 0.00 35 1009.3
20260501184553 14 323 4.8 25.7 0.00 0.00 0.00 35 1009.3
20260501183056 14 253 8.0 19.3 0.00 0.00 0.00 35 1009.7
20260501181558 13 58 8.0 25.7 0.00 0.00 0.00 39 1009.7
20260501180058 13 285 4.8 20.9 0.00 0.00 0.00 38 1009.8